Hourly Data Report for October 24, 2015

All times are specified in Local Standard Time (LST). Add 1 hour to adjust for Daylight Saving Time where and when it is observed.

CHARLOTTETOWN A
PRINCE EDWARD ISLAND

46°17'21.000" N
63°07'09.000" W
48.50 m
8300301
71706
YYG

Download Data

Hourly Data (October 2015)
Hourly Data Report for October 24, 2015
Temp Definition
°C
Dew Point Temp Definition
°C
Rel Hum Definition
%
Wind Dir Definition
10's deg

Wind Spd Definition
km/h
Visibility Definition
km
Stn Press Definition
kPa
Hmdx Definition


Wind Chill Definition


Weather Definition


TIME
00:00 Legend Double Dagger 5.3 3.2 86 1 25 24.1 101.76     Rain Showers
01:00 Legend Double Dagger 4.7 1.4 79 36 14 24.1 101.85     LegendNANA
02:00 Legend Double Dagger 5.0 1.3 77 1 23 24.1 101.91     Mainly Clear
03:00 Legend Double Dagger 4.3 0.8 78 36 15 24.1 101.96     LegendNANA
04:00 Legend Double Dagger 4.1 0.6 78 36 18 24.1 102.04     LegendNANA
05:00 Legend Double Dagger 3.6 0.7 81 35 10 24.1 102.14     Mostly Cloudy
06:00 Legend Double Dagger 3.7 1.3 84 36 12 24.1 102.19     LegendNANA
07:00 Legend Double Dagger 3.2 0.3 81 1 13 24.1 102.24     LegendNANA
08:00 Legend Double Dagger 3.7 1.3 84 34 9 24.1 102.30     Rain Showers
09:00 Legend Double Dagger 5.2 0.8 73 4 19 24.1 102.34     LegendNANA
10:00 Legend Double Dagger 5.2 0.0 69 2 14 24.1 102.40     LegendNANA
11:00 Legend Double Dagger 5.2 0.4 71 36 7 24.1 102.39     Cloudy
12:00 Legend Double Dagger 5.5 1.1 73 2 4 24.1 102.38     LegendNANA
13:00 Legend Double Dagger 5.9 0.5 68 34 4 24.1 102.37     LegendNANA
14:00 Legend Double Dagger 6.1 0.5 67 10 6 24.1 102.34     Mostly Cloudy
15:00 Legend Double Dagger 6.0 -0.1 65 7 5 24.1 102.31     LegendNANA
16:00 Legend Double Dagger 5.9 0.1 66 22 7 24.1 102.31     LegendNANA
17:00 Legend Double Dagger 5.4 0.2 69 21 10 24.1 102.29     Mostly Cloudy
18:00 Legend Double Dagger 5.0 0.6 73 20 9 24.1 102.33     LegendNANA
19:00 Legend Double Dagger 3.6 0.1 78 16 5 24.1 102.34     LegendNANA
20:00 Legend Double Dagger 1.1 -0.5 89 12 7 24.1 102.29     Mostly Cloudy
21:00 Legend Double Dagger 2.3 1.0 91 14 10 24.1 102.25     LegendNANA
22:00 Legend Double Dagger 4.2 1.9 85 18 18 24.1 102.19     LegendNANA
23:00 Legend Double Dagger 5.6 2.8 82 19 22 24.1 102.14     Mainly Clear

Notes on Data Quality.

Legend

  • E = Estimated
  • M = Missing
  • NA = Not Available
  • ‡ = Partner data that is not subject to review by the National Climate Archives
Date modified: